Change the Weather History Date:

Monday, February 11, 2013

  Actual Average Record
Temperature  
Mean Temperature 0 °F -  
Max Temperature 15 °F 15 °F 37 °F (2000)
Min Temperature -16 °F 5 °F -27 °F (2005)
Degree Days  
Heating Degree Days 66    
Moisture  
Dew Point -5 °F    
Average Humidity 79    
Maximum Humidity 92    
Minimum Humidity 70    
Precipitation  
Precipitation 0.00 in - - ()
Sea Level Pressure  
Sea Level Pressure 29.48 in    
Wind  
Wind Speed 13 mph (ESE)    
Max Wind Speed 26 mph    
Max Gust Speed 34 mph    
Visibility 8 miles    
Events      
Averages and records for this station are not official NWS values.
T = Trace of Precipitation, MM = Missing Value Source: NWS Daily Summary

Daily Weather History Graph

Daily Weather History Graph

Search for Another Location

Airport or City:

Trip Planner

Search our weather history database for the weather conditions in past years. The results will help you decide how hot, cold, wet, or windy it might be!

Date:

Astronomy

Feb. 11, 2013 Rise Set
Actual Time 9:57 AM AKST 6:27 PM AKST
Civil Twilight 9:08 AM AKST 7:17 PM AKST
Nautical Twilight 8:14 AM AKST 8:11 PM AKST
Astronomical Twilight 7:21 AM AKST 9:03 PM AKST
Moon 9:38 AM AKST (2/11) 9:38 PM AKST (2/11)
Length of Visible Light 10h 09m
Length of Day
8h 30m
Waxing Crescent, 3% of the Moon is Illuminated
Feb 11
Waxing Crescent
Feb 17
First Quarter
Feb 25
Full
Mar 4
Last Quarter
Mar 11
New

Hourly Weather History & Observations

Time (AKST) Temp. Windchill Dew Point Humidity Pressure Visibility Wind Dir Wind Speed Gust Speed Precip Events Conditions
12:16 AM -9.4 °F -29.8 °F -16.6 °F 71% 29.51 in 10.0 mi South 12.7 mph - N/A   Clear
12:36 AM -11.2 °F -32.1 °F -16.6 °F 77% 29.52 in 10.0 mi SSE 12.7 mph - N/A   Clear
12:56 AM -11.2 °F -27.8 °F -16.6 °F 77% 29.53 in 10.0 mi SE 8.1 mph - N/A   Clear
1:16 AM -13.0 °F -33.4 °F -18.4 °F 77% 29.54 in 10.0 mi SSE 11.5 mph - N/A   Clear
1:36 AM -14.8 °F -32.2 °F -20.2 °F 77% 29.55 in 10.0 mi SE 8.1 mph - N/A   Clear
1:56 AM -14.8 °F -33.5 °F -16.6 °F 92% 29.55 in 10.0 mi SSE 9.2 mph - N/A   Clear
2:16 AM -14.8 °F -33.5 °F -20.2 °F 77% 29.55 in 10.0 mi SE 9.2 mph - N/A   Clear
2:36 AM -13.0 °F -34.3 °F -18.4 °F 77% 29.55 in 10.0 mi SE 12.7 mph - N/A   Clear
2:56 AM -11.2 °F -32.1 °F -16.6 °F 77% 29.55 in 10.0 mi SE 12.7 mph - N/A   Clear
3:16 AM -11.2 °F -29.0 °F -18.4 °F 70% 29.55 in 10.0 mi ESE 9.2 mph - N/A   Clear
3:36 AM -14.8 °F -30.8 °F -22.0 °F 70% 29.55 in 10.0 mi East 6.9 mph - N/A   Clear
3:56 AM -16.6 °F -32.9 °F -20.2 °F 84% 29.55 in 10.0 mi East 6.9 mph - N/A   Clear
4:16 AM -14.8 °F -33.5 °F -18.4 °F 84% 29.54 in 10.0 mi East 9.2 mph - N/A   Scattered Clouds
4:36 AM -13.0 °F -32.4 °F -16.6 °F 84% 29.54 in 10.0 mi East 10.4 mph - N/A   Overcast
4:56 AM -9.4 °F -28.9 °F -16.6 °F 71% 29.53 in 10.0 mi East 11.5 mph - N/A   Overcast
5:16 AM -9.4 °F -28.9 °F -13.0 °F 84% 29.53 in 10.0 mi East 11.5 mph - N/A   Overcast
5:36 AM -7.6 °F -26.6 °F -11.2 °F 84% 29.52 in 10.0 mi East 11.5 mph - N/A   Overcast
5:56 AM -7.6 °F -28.3 °F -11.2 °F 84% 29.51 in 10.0 mi East 13.8 mph - N/A   Overcast
6:16 AM -7.6 °F -26.6 °F -13.0 °F 77% 29.51 in 10.0 mi East 11.5 mph - N/A   Scattered Clouds
6:36 AM -7.6 °F -25.7 °F -11.2 °F 84% 29.51 in 10.0 mi East 10.4 mph - N/A   Clear
6:56 AM -7.6 °F -27.5 °F -11.2 °F 84% 29.50 in 10.0 mi East 12.7 mph - N/A   Clear
7:16 AM -5.8 °F -26.0 °F -11.2 °F 77% 29.50 in 10.0 mi East 13.8 mph - N/A   Scattered Clouds
7:36 AM -5.8 °F -26.0 °F -11.2 °F 77% 29.49 in 10.0 mi East 13.8 mph - N/A   Overcast
7:56 AM -4.0 °F -23.0 °F -9.4 °F 78% 29.49 in 10.0 mi East 12.7 mph - N/A   Overcast
8:16 AM -5.8 °F -26.8 °F -11.2 °F 77% 29.48 in 10.0 mi East 15.0 mph - N/A   Overcast
8:36 AM -4.0 °F -25.8 °F -11.2 °F 71% 29.48 in 10.0 mi East 17.3 mph - N/A   Overcast
8:56 AM -4.0 °F -24.5 °F -9.4 °F 78% 29.47 in 10.0 mi East 15.0 mph - N/A   Overcast
9:16 AM -2.2 °F -23.5 °F -9.4 °F 71% 29.46 in 8.0 mi ENE 17.3 mph - N/A   Overcast
9:36 AM -0.4 °F -21.2 °F -5.8 °F 78% 29.45 in 2.5 mi ENE 17.3 mph - N/A   Overcast
9:56 AM 1.4 °F -19.9 °F -2.2 °F 85% 29.44 in 0.8 mi ENE 19.6 mph - N/A   Overcast
10:16 AM 1.4 °F -19.4 °F -2.2 °F 85% 29.44 in 0.5 mi East 18.4 mph - N/A   Overcast
10:36 AM 1.4 °F -20.5 °F -2.2 °F 85% 29.43 in 0.5 mi East 20.7 mph 26.5 mph N/A   Overcast
10:56 AM 3.2 °F -17.6 °F -0.4 °F 85% 29.41 in 0.5 mi East 19.6 mph - N/A   Overcast
11:16 AM 6.8 °F -15.1 °F 1.4 °F 79% 29.40 in 0.5 mi East 25.3 mph 29.9 mph N/A   Overcast
11:36 AM 6.8 °F -15.5 °F 1.4 °F 79% 29.39 in 1.0 mi East 26.5 mph 31.1 mph N/A   Overcast
11:56 AM - - - N/A% 29.37 in 0.8 mi East 26.5 mph 31.1 mph N/A   Overcast
12:16 PM 6.8 °F -13.8 °F 1.4 °F 79% 29.38 in 1.2 mi East 21.9 mph 28.8 mph N/A   Overcast
12:36 PM 6.8 °F -11.8 °F 1.4 °F 79% 29.37 in 2.0 mi East 17.3 mph 25.3 mph N/A   Overcast
12:56 PM 8.6 °F -8.3 °F 3.2 °F 79% 29.37 in 2.0 mi East 15.0 mph - N/A   Overcast
1:56 PM 10.4 °F -8.6 °F 6.8 °F 85% 29.36 in 0.8 mi ESE 20.7 mph - N/A   Overcast
2:16 PM 12.2 °F -7.9 °F 10.4 °F 92% 29.36 in 1.0 mi SE 25.3 mph 34.5 mph N/A   Overcast
2:36 PM 15.8 °F -3.1 °F 10.4 °F 79% 29.35 in 0.5 mi SSE 25.3 mph 32.2 mph N/A   Overcast
2:56 PM 15.8 °F -3.1 °F 12.2 °F 86% 29.36 in 0.5 mi South 25.3 mph 33.4 mph N/A   Overcast
3:16 PM 15.8 °F -1.5 °F 8.6 °F 73% 29.40 in 3.0 mi SSW 20.7 mph 31.1 mph N/A   Mostly Cloudy
3:36 PM 12.2 °F -6.3 °F 6.8 °F 79% 29.41 in 9.0 mi SSW 20.7 mph 26.5 mph N/A   Partly Cloudy
3:56 PM 12.2 °F -4.3 °F 6.8 °F 79% 29.43 in 10.0 mi SSW 16.1 mph - N/A   Clear
4:16 PM 10.4 °F -4.8 °F 3.2 °F 73% 29.45 in 10.0 mi South 12.7 mph 25.3 mph N/A   Clear
4:36 PM 10.4 °F -3.3 °F 3.2 °F 73% 29.46 in 10.0 mi South 10.4 mph - N/A   Clear
4:56 PM 8.6 °F -7.7 °F 3.2 °F 79% 29.47 in 10.0 mi South 13.8 mph 19.6 mph N/A   Clear
5:16 PM 8.6 °F -6.3 °F 3.2 °F 79% 29.47 in 10.0 mi South 11.5 mph - N/A   Clear
5:36 PM 6.8 °F -7.8 °F 1.4 °F 79% 29.48 in 10.0 mi South 10.4 mph - N/A   Clear
5:56 PM 6.8 °F -7.8 °F 1.4 °F 79% 29.48 in 10.0 mi SSE 10.4 mph - N/A   Clear
6:16 PM 5.0 °F -8.1 °F -0.4 °F 78% 29.49 in 10.0 mi SSE 8.1 mph - N/A   Clear
6:36 PM 3.2 °F -9.1 °F -0.4 °F 85% 29.50 in 10.0 mi SSE 6.9 mph - N/A   Partly Cloudy
6:56 PM 3.2 °F -10.3 °F -2.2 °F 78% 29.50 in 10.0 mi SSE 8.1 mph - N/A   Mostly Cloudy
7:16 PM 1.4 °F -8.3 °F -2.2 °F 85% 29.51 in 10.0 mi SSE 4.6 mph - N/A   Overcast
7:36 PM 3.2 °F -11.3 °F -2.2 °F 78% 29.51 in 10.0 mi SE 9.2 mph - N/A   Overcast
7:56 PM 3.2 °F -9.1 °F -0.4 °F 85% 29.52 in 10.0 mi SE 6.9 mph - N/A   Overcast
8:16 PM 5.0 °F -8.1 °F -0.4 °F 78% 29.52 in 10.0 mi ESE 8.1 mph - N/A   Overcast
8:36 PM 6.8 °F -4.8 °F 1.4 °F 79% 29.52 in 10.0 mi ESE 6.9 mph - N/A   Overcast
8:56 PM 6.8 °F -5.9 °F 1.4 °F 79% 29.52 in 10.0 mi East 8.1 mph - N/A   Overcast
9:16 PM 6.8 °F -4.8 °F 1.4 °F 79% 29.52 in 10.0 mi ESE 6.9 mph - N/A   Overcast
9:36 PM 6.8 °F -5.9 °F 3.2 °F 85% 29.52 in 10.0 mi East 8.1 mph - N/A   Overcast
9:56 PM 8.6 °F -4.7 °F 3.2 °F 79% 29.53 in 10.0 mi East 9.2 mph - N/A   Overcast
10:16 PM 6.8 °F -5.9 °F 1.4 °F 79% 29.53 in 10.0 mi East 8.1 mph - N/A   Overcast
10:36 PM 6.8 °F -4.8 °F 1.4 °F 79% 29.53 in 10.0 mi East 6.9 mph - N/A   Overcast
10:56 PM 6.8 °F -4.8 °F 1.4 °F 79% 29.54 in 10.0 mi East 6.9 mph - N/A   Overcast
11:16 PM 6.8 °F -5.9 °F 1.4 °F 79% 29.54 in 10.0 mi East 8.1 mph - N/A   Overcast
11:36 PM 6.8 °F -5.9 °F 1.4 °F 79% 29.54 in 10.0 mi East 8.1 mph - N/A   Overcast
11:56 PM 6.8 °F -4.8 °F 1.4 °F 79% 29.54 in 10.0 mi East 6.9 mph - N/A   Overcast